Date String (YYYY-MM-DD hh:mm:ss) UTC,Instrument flags,Ambient pressure (hPa),Sample flow (lpm),Bypass flow (lpm),Sample temperature (°C),Ambient temperature (°C),ASC tube jacket temperature (°C),LED temperature (°C),Box temperature (°C),Sample RH (%),Span deviation,Mass concentration (μg/m³),Mass concentration (μg/m³),Mass concentration (μg/m³)
DateTimeUTC,F1_M11,P_M11,Q1_M11,Q2_M11,T1_M11,T2_M11,T3_M11,T4_M11,T5_M11,U1_M11,ZSPAN_M11,X0_M11,X2_M11,X1_M11
2022-04-19 10:00:00,,0820.3,5.00,0.00,26.8,25.7,00.0,35.8,28.6,14.0,0001.5,0027.75,0010.37,0007.20
2022-04-19 10:01:00,,0820.4,5.00,0.00,26.8,25.7,00.0,35.8,28.6,13.8,0001.4,0027.34,0010.28,0007.15
2022-04-19 10:02:00,,0820.5,5.00,0.00,26.8,25.7,00.0,35.8,28.6,14.0,0001.9,0028.79,0010.20,0007.11
2022-04-19 10:03:00,,0820.4,4.98,0.00,26.8,25.7,00.0,35.8,28.6,14.2,0001.7,0029.94,0010.25,0007.14
2022-04-19 10:04:00,,0820.4,5.00,0.00,26.8,25.6,00.0,35.8,28.5,13.9,0002.0,0029.23,0010.20,0007.13
2022-04-19 10:05:00,,0820.4,4.99,0.00,26.8,25.6,00.0,35.8,28.5,13.7,0002.3,0028.95,0010.22,0007.09
2022-04-19 10:06:00,,0820.5,5.01,0.00,26.7,25.6,00.0,35.8,28.5,13.7,0002.3,0029.42,0010.17,0007.05
2022-04-19 10:07:00,,0820.4,5.01,0.00,26.7,25.6,00.0,35.7,28.5,13.5,0002.1,0029.39,0010.09,0007.00
2022-04-19 10:08:00,,0820.4,5.00,0.00,26.7,25.6,00.0,35.7,28.4,13.6,0001.6,0029.23,0010.02,0006.97
2022-04-19 10:09:00,,0820.3,4.99,0.00,26.6,25.5,00.0,35.7,28.4,13.3,0002.1,0027.98,0009.86,0006.90
2022-04-19 10:10:00,,0820.3,5.01,0.00,26.6,25.5,00.0,35.7,28.3,12.9,0002.5,0028.17,0009.69,0006.77
2022-04-19 10:11:00,,0820.2,4.98,0.00,26.6,25.4,00.0,35.7,28.3,12.7,0002.5,0028.52,0009.54,0006.62
2022-04-19 10:12:00,,0820.3,5.01,0.00,26.5,25.4,00.0,35.6,28.2,12.6,0002.4,0029.76,0009.48,0006.52
2022-04-19 10:13:00,,0820.3,5.01,0.00,26.5,25.3,00.0,35.6,28.2,12.6,0002.3,0028.81,0009.29,0006.38
2022-04-19 10:14:00,,0820.3,4.99,0.00,26.4,25.3,00.0,35.6,28.1,12.7,0001.4,0028.00,0009.07,0006.20
2022-04-19 10:15:00,,0820.4,5.00,0.00,26.4,25.2,00.0,35.6,28.0,12.8,0001.7,0028.41,0008.94,0006.06
2022-04-19 10:16:00,,0820.3,5.01,0.00,26.3,25.1,00.0,35.5,28.0,12.9,0002.2,0027.93,0008.79,0005.96
2022-04-19 10:17:00,,0820.3,4.99,0.00,26.3,25.1,00.0,35.5,27.9,12.9,0002.1,0026.29,0008.59,0005.85
2022-04-19 10:18:00,,0820.2,4.99,0.00,26.2,25.0,00.0,35.4,27.9,12.8,0002.0,0026.39,0008.48,0005.77
2022-04-19 10:19:00,,0820.1,5.01,0.00,26.2,25.0,00.0,35.4,27.8,12.9,0002.3,0025.85,0008.33,0005.68
2022-04-19 10:20:00,,0820.1,4.99,0.00,26.1,24.9,00.0,35.4,27.8,13.0,0001.8,0027.14,0008.33,0005.63
2022-04-19 10:21:00,,0820.1,5.00,0.00,26.1,24.9,00.0,35.3,27.7,13.0,0001.7,0027.92,0008.30,0005.60
2022-04-19 10:22:00,,0820.2,5.01,0.00,26.0,24.8,00.0,35.3,27.7,13.0,0002.5,0027.98,0008.23,0005.60
2022-04-19 10:23:00,,0820.2,4.99,0.00,26.0,24.7,00.0,35.3,27.6,13.2,0002.4,0027.22,0008.19,0005.60
2022-04-19 10:24:00,,0820.3,4.99,0.00,25.9,24.7,00.0,35.2,27.6,13.3,0002.5,0026.98,0008.25,0005.62
2022-04-19 10:25:00,,0820.3,5.01,0.00,25.9,24.7,00.0,35.2,27.5,13.4,0001.9,0027.96,0008.33,0005.69
2022-04-19 10:26:00,,0820.3,4.99,0.00,25.8,24.6,00.0,35.1,27.5,13.4,0001.7,0027.27,0008.31,0005.74
2022-04-19 10:27:00,,0820.2,5.00,0.00,25.8,24.7,00.0,35.1,27.5,13.5,0002.2,0027.01,0008.25,0005.77
2022-04-19 10:28:00,,0820.2,4.99,0.00,25.8,24.7,00.0,35.1,27.5,13.7,0002.5,0027.90,0008.37,0005.85
2022-04-19 10:29:00,,0820.2,5.02,0.00,25.8,24.7,00.0,35.0,27.5,13.9,0003.0,0029.39,0008.49,0005.94
2022-04-19 10:30:00,,0820.2,5.00,0.00,25.8,24.7,00.0,35.0,27.5,13.8,0002.8,0030.04,0008.64,0006.00
2022-04-19 10:31:00,,0820.1,5.00,0.00,25.7,24.7,00.0,35.0,27.4,13.8,0003.0,0030.18,0008.62,0006.07
2022-04-19 10:32:00,,0820.1,4.99,0.00,25.7,24.6,00.0,35.0,27.4,13.9,0002.4,0030.30,0008.69,0006.15
2022-04-19 10:33:00,,0820.1,5.01,0.00,25.7,24.6,00.0,34.9,27.4,14.0,0001.4,0030.51,0008.82,0006.24
2022-04-19 10:34:00,,0820.2,5.01,0.00,25.7,24.6,00.0,34.9,27.4,14.1,0001.3,0030.03,0008.87,0006.33
2022-04-19 10:35:00,,0820.1,4.99,0.00,25.6,24.6,00.0,34.9,27.3,14.3,0000.7,0030.78,0008.92,0006.41
2022-04-19 10:36:00,,0820.0,5.00,0.00,25.6,24.5,00.0,34.8,27.3,14.6,0000.8,0029.99,0008.96,0006.49
2022-04-19 10:37:00,,0820.0,5.02,0.00,25.6,24.5,00.0,34.8,27.3,14.9,0000.5,0029.72,0009.09,0006.61
2022-04-19 10:38:00,,0820.0,4.99,0.00,25.6,24.6,00.0,34.8,27.3,15.1,-000.5,0030.11,0009.23,0006.76
2022-04-19 10:39:00,,0820.0,5.00,0.00,25.6,24.6,00.0,34.8,27.3,15.5,-000.9,0030.80,0009.40,0006.91
2022-04-19 10:40:00,,0820.0,4.99,0.00,25.6,24.6,00.0,34.8,27.3,15.6,-000.9,0030.25,0009.62,0007.07
2022-04-19 10:41:00,,0819.9,5.01,0.00,25.6,24.6,00.0,34.7,27.3,15.5,-000.9,0030.20,0009.76,0007.22
2022-04-19 10:42:00,,0819.8,5.01,0.00,25.6,24.6,00.0,34.7,27.3,15.5,-001.2,0029.92,0009.99,0007.37
2022-04-19 10:43:00,,0819.9,4.99,0.00,25.6,24.6,00.0,34.7,27.4,15.4,-001.0,0028.49,0010.12,0007.51
2022-04-19 10:44:00,,0819.9,5.00,0.00,25.6,24.6,00.0,34.7,27.4,15.5,-000.3,0027.78,0010.18,0007.66
2022-04-19 10:45:00,,0819.9,5.00,0.00,25.6,24.7,00.0,34.7,27.4,15.5,-000.0,0027.84,0010.34,0007.79
2022-04-19 10:46:00,,0819.9,5.01,0.00,25.6,24.7,00.0,34.7,27.4,15.5,0000.1,0027.23,0010.51,0007.90
2022-04-19 10:47:00,,0819.9,5.00,0.00,25.6,24.7,00.0,34.7,27.4,15.7,-000.1,0027.53,0010.65,0008.00
2022-04-19 10:48:00,,0819.9,5.00,0.00,25.6,24.7,00.0,34.6,27.4,15.8,-000.2,0028.21,0010.79,0008.08
2022-04-19 10:49:00,,0819.9,5.00,0.00,25.6,24.7,00.0,34.6,27.4,15.8,0000.1,0027.86,0010.89,0008.14
2022-04-19 10:50:00,,0819.8,5.00,0.00,25.6,24.7,00.0,34.6,27.4,15.9,0000.4,0027.14,0010.91,0008.18
2022-04-19 10:51:00,,0819.9,5.01,0.00,25.6,24.7,00.0,34.6,27.4,16.0,0000.0,0026.24,0010.90,0008.19
2022-04-19 10:52:00,,0819.9,5.00,0.00,25.6,24.7,00.0,34.6,27.4,16.1,-000.3,0026.78,0010.93,0008.21
2022-04-19 10:53:00,,0819.9,5.00,0.00,25.6,24.6,00.0,34.6,27.3,16.0,-000.0,0026.68,0010.98,0008.24
2022-04-19 10:54:00,,0819.9,5.00,0.00,25.6,24.6,00.0,34.6,27.3,16.0,-000.0,0026.89,0011.10,0008.28
2022-04-19 10:55:00,,0819.9,4.99,0.00,25.6,24.6,00.0,34.6,27.4,15.9,-000.1,0027.02,0011.18,0008.28
2022-04-19 10:56:00,,0819.9,5.00,0.00,25.6,24.6,00.0,34.6,27.4,15.9,0000.0,0027.33,0011.20,0008.27
2022-04-19 10:57:00,,0819.9,5.00,0.00,25.6,24.7,00.0,34.6,27.4,15.8,0000.1,0028.26,0011.21,0008.27
2022-04-19 10:58:00,,0819.9,4.99,0.00,25.6,24.6,00.0,34.6,27.4,15.8,0000.7,0028.68,0011.15,0008.25
2022-04-19 10:59:00,,0819.8,4.99,0.00,25.5,24.6,00.0,34.6,27.3,15.7,0001.0,0028.61,0011.08,0008.20
